Home   Weather   Kohtla-Järve   Past weeks
Flag for Estonia

Past Weather in Kohtla-Järve, Estonia — Yesterday and Last 2 Weeks

Now
43 °F

Light rain. Low clouds.


Feels Like: 41 °F
Forecast: 46 / 41 °F
Wind: 3 mph from Southeast

Location: Johvi

Current Time: Oct 14, 2019 at 11:19:19 am

Latest Report: Oct 14, 2019 at 10:00 am


Visibility: 7 mi

Pressure: 29.79 "Hg

Humidity: 100%

Dew Point: 43 °F

Location of Kohtla-JärveLocation

Past Weather in Kohtla-Järve — Graph

°F

Kohtla-Järve Temperature Yesterday

Maximum temperature yesterday: 51 °F (at 12:00 pm)
Minimum temperature yesterday: 40 °F (at 11:00 pm)
Average temperature yesterday: 47 °F

High & Low Weather Summary for the Past Weeks

 TemperatureHumidityPressure
High55 °F (Sep 29, 5:00 pm)100% (Sep 29, 9:00 am)30.12 "Hg (Sep 29, 9:00 am)
Low32 °F (Oct 5, 5:00 am)56% (Oct 1, 4:00 pm)29.03 "Hg (Oct 1, 6:00 am)
Average42 °F95%29.62 "Hg
* Reported Sep 29 9:00 am — Oct 14 9:00 am, Kohtla-Järve. Weather by CustomWeather, © 2019

Note: Actual official high and low records may vary slightly from our data, if they occured in-between our weather recording intervals... More about our weather records

Advertising

Kohtla-Järve Weather History for the Previous 24 Hours

Scroll right to see more
 ConditionsComfort  
Time TempWeatherWind HumidityBarometerVisibility
9:00 am
Mon, Oct 14
42 °FLight rain. Low clouds.3 mph100%29.80 "Hg12 mi
8:00 am41 °FLight rain. Overcast.2 mph100%29.83 "Hg8 mi
7:00 am38 °FOvercast.2 mph100%29.86 "Hg12 mi
6:00 am37 °FOvercast.2 mph100%29.90 "Hg12 mi
5:00 am35 °FOvercast.1 mph100%29.90 "Hg10 mi
4:00 am33 °FOvercast.2 mph100%29.92 "Hg2 mi
3:00 am35 °FDuststorm.1 mph100%29.94 "Hg1 mi
2:00 am38 °FPassing clouds.1 mph100%29.93 "Hg12 mi
1:00 am39 °FClear.N/A99%29.93 "Hg12 mi
12:00 am39 °FClear.3 mph98%29.91 "Hg12 mi
11:00 pm
Sun, Oct 13
40 °FClear.3 mph98%29.89 "Hg12 mi
10:00 pm42 °FPassing clouds.3 mph93%29.88 "Hg12 mi
9:00 pm44 °FClear.2 mph91%29.85 "Hg12 mi
8:00 pm45 °FClear.3 mph85%29.83 "Hg12 mi
7:00 pm46 °FClear.3 mph85%29.81 "Hg12 mi
6:00 pm48 °FSunny.3 mph82%29.77 "Hg12 mi
5:00 pm50 °FSunny.3 mph83%29.74 "Hg12 mi
4:00 pm51 °FOvercast.3 mph90%29.72 "Hg12 mi
3:00 pm51 °FOvercast.N/A91%29.69 "Hg12 mi
2:00 pm50 °FRain showers. Overcast.3 mph93%29.67 "Hg12 mi
1:00 pm51 °FLots of rain. Overcast.7 mph93%29.64 "Hg4 mi
12:00 pm51 °FOvercast.6 mph92%29.62 "Hg12 mi
11:00 am50 °FRain showers. Low clouds.7 mph94%29.61 "Hg11 mi
Weather by CustomWeather, © 2019

See weather overview